Regional Weather Roundup
Issued by NWS Cleveland, OH

Home | Current Version | Previous Version | Graphics & Text | Print | Product List | Glossary On
Versions: 1 2 3 4 5 6 7 8 9 10 11 12 13 14 15 16 17 18 19 20 21 22 23 24 25 26 27 28 29 30 31 32 33 34 35 36 37 38 39 40 41 42 43 44 45 46 47 48 49 50
000
ASUS41 KCLE 280500
RWRCLE
OHIO REGIONAL WEATHER ROUNDUP
NATIONAL WEATHER SERVICE WILMINGTON, OH
100 AM EDT THU MAY 28 2015

NOTE: "FAIR" INDICATES FEW OR NO CLOUDS BELOW 12,000 FEET WITH NO
SIGNIFICANT WEATHER AND/OR OBSTRUCTIONS TO VISIBILITY.

OHZ001>008-015>018-024>027-034-035-043-044-280600-
   NORTHWEST OHIO

CITY           SKY/WX    TMP DP  RH WIND       PRES   REMARKS
DEFIANCE       CLEAR     62  58  86 CALM      30.13R
FINDLAY        MOCLDY    66  63  90 W5        30.12R
TOLEDO EXPRESS CLEAR     62  59  90 W5        30.11R
TOLEDO EXEC    PTCLDY    63  60  90 W8        30.12R
LIMA           MOCLDY    65  62  90 CALM      30.13R
$$

OHZ009>014-019>023-028>033-038-089-280600-
   NORTHEAST OHIO

CITY           SKY/WX    TMP DP  RH WIND       PRES   REMARKS
CLE-HOPKINS    CLOUDY    65  63  93 S7        30.12R
CLE-LAKEFRONT  CLOUDY    66  62  87 SE8       30.09R
CUY CO. ARPT   NOT AVBL
LORAIN-ELYRIA  CLOUDY    64 N/A N/A SW5       30.11R
ASHTABULA      CLOUDY    63  61  93 S8        30.11S
AKRON-CANTON   TSTM      65  62  90 SW7       30.14R VSB 1
WOOSTER        NOT AVBL
MANSFIELD      CLOUDY    65  65 100 SW5       30.14R
YOUNGSTOWN     TSTM      63  62  97 S6        30.12F FOG
$$

OHZ042-051>053-060>062-070>072-077>081-280600-
  SOUTHWEST OHIO

CITY           SKY/WX    TMP DP  RH WIND       PRES   REMARKS
CINC-COVINGTON NOT AVBL
CINC-LUNKEN    CLOUDY    64  61  90 CALM      30.16S
HAMILTON       CLOUDY    67  62  84 VRB3      30.16R
DAYTON         NOT AVBL
WRIGHT-PAT AFB NOT AVBL
DAYTON GENERAL CLOUDY    68  61  78 SW9       30.15R
WILMINGTON     MOCLDY    65  58  78 SW8       30.15R
$$

OHZ036-037-039>041-045>050-054>059-063>069-073>076-082>088-280600-
  CENTRAL AND SOUTHEAST OHIO

CITY           SKY/WX    TMP DP  RH WIND       PRES   REMARKS
COLUMBUS       MOCLDY    69  58  67 SW8       30.14R
OSU AIRPORT    CLOUDY    69  58  67 SW7       30.14R
BOLTON FIELD   NOT AVBL
RICKENBACK AFB NOT AVBL
NEWARK         MOCLDY    68  57  68 SW9       30.14R
MARION         CLOUDY    67  64  90 SW3       30.13R
LANCASTER      PTCLDY    69  57  65 W8        30.14R
ZANESVILLE     PTCLDY    69  57  65 SW7       30.14R
NEW PHILLY     PTCLDY    66  60  81 CALM      30.14R
$$


USA.gov is the U.S. government's official web portal to all federal, state and local government web resources and services.